Location: Poughquag
(41.6090°N, 73.6820°W)
Time: 11:31:19
(UTC-05:00)

Envisat - Pass Details

Date: 17 January 2020
Orbit: 764 x 766 km, 98.1° (Epoch: 24 February)

Event Time Altitude Azimuth Distance (km) Brightness Sun altitude
Rises 06:09:47 0° 19° (NNE) 3,241 6.3 -12.7°
Reaches altitude 10° 06:12:12 10° 25° (NNE) 2,310 5.6 -12.3°
Maximum altitude 06:17:05 46° 99° (E) 1,029 4.2 -11.4°
Drops below altitude 10° 06:21:55 10° 172° (S) 2,293 5.8 -10.6°
Sets 06:24:18 0° 178° (S) 3,214 6.5 -10.1°
